CW8721 Weather Reports


time (UTC)temp
F
wind
direction
speed
knots
gust
knots
rain 1hr
in
rain 24hr
in
rain mn
in
humidity
%
barometer
mb
20260502164051 67 246 1.7 6.1 0.00 0.00 0.00 19 1016.1
20260502163548 66 179 0.9 6.1 0.00 0.00 0.00 22 1016.1
20260502163050 66 163 1.7 6.1 0.00 0.00 0.00 23 1016.1
20260502162546 65 196 1.7 4.3 0.00 0.00 0.00 21 1016.2
20260502162044 66 159 1.7 6.1 0.00 0.00 0.00 24 1016.2
20260502161548 66 186 2.6 11.3 0.00 0.00 0.00 25 1016.2
20260502161041 64 205 1.7 7.8 0.00 0.00 0.00 26 1016.2
20260502160539 64 134 2.6 7.8 0.00 0.00 0.00 27 1016.3
20260502152026 60 92 0.0 6.1 0.00 0.00 0.00 37 1016.5
20260502151525 60 154 0.9 7.0 0.00 0.00 0.00 40 1016.5
20260502151026 59 140 1.7 7.0 0.00 0.00 0.00 41 1016.6
20260502150523 59 151 0.9 5.2 0.00 0.00 0.00 42 1016.6
20260502130558 44 360 0.0 0.0 0.00 0.00 0.00 60 1016.5
20260502123555 44 136 0.0 0.0 0.00 0.00 0.00 61 1016.4
20260502123056 43 136 0.0 0.0 0.00 0.00 0.00 62 1016.4
20260502122554 44 130 0.0 0.0 0.00 0.00 0.00 62 1016.4
20260502122055 44 130 0.0 0.0 0.00 0.00 0.00 62 1016.4
20260502121554 44 130 0.0 0.0 0.00 0.00 0.00 61 1016.4
20260502121054 44 130 0.0 0.0 0.00 0.00 0.00 60 1016.4
20260502120553 44 130 0.0 0.0 0.00 0.00 0.00 58 1016.4
20260502120109 45 132 0.0 0.0 0.00 0.00 0.00 58 1016.4
20260502115553 45 132 0.0 0.0 0.00 0.00 0.00 58 1016.3
20260502115051 45 131 0.0 0.0 0.00 0.00 0.00 58 1016.3
20260502114557 45 132 0.0 0.0 0.00 0.00 0.00 57 1016.4
20260502114051 45 360 0.0 1.7 0.00 0.00 0.00 57 1016.3
20260502113551 45 360 0.0 1.7 0.00 0.00 0.00 56 1016.3
20260502113051 45 360 0.0 1.7 0.00 0.00 0.00 56 1016.4
20260502112550 45 130 0.0 0.9 0.00 0.00 0.00 55 1016.4
20260502112050 46 360 0.0 0.9 0.00 0.00 0.00 54 1016.4
20260502111553 46 128 0.0 0.0 0.00 0.00 0.00 52 1016.5
20260502111050 47 128 0.0 0.0 0.00 0.00 0.00 50 1016.4
20260502110552 47 128 0.0 0.9 0.00 0.00 0.00 51 1016.4
20260502110049 46 129 0.0 0.9 0.00 0.00 0.00 53 1016.4
20260502105549 44 126 0.0 0.9 0.00 0.00 0.00 55 1016.4
20260502105047 44 126 0.0 0.0 0.00 0.00 0.00 56 1016.4
20260502104552 44 126 0.0 0.0 0.00 0.00 0.00 57 1016.5
20260502104047 44 126 0.0 0.0 0.00 0.00 0.00 57 1016.4
20260502103547 44 126 0.0 0.0 0.00 0.00 0.00 56 1016.4
20260502103047 44 126 0.0 0.0 0.00 0.00 0.00 56 1016.4
20260502102546 44 127 0.0 0.0 0.00 0.00 0.00 55 1016.4
20260502102047 44 128 0.0 0.0 0.00 0.00 0.00 55 1016.4
20260502101549 44 127 0.0 0.9 0.00 0.00 0.00 55 1016.4
20260502101045 44 128 0.0 0.9 0.00 0.00 0.00 56 1016.2
20260502100545 43 126 0.0 1.7 0.00 0.00 0.00 56 1016.3
20260502091041 44 123 0.0 2.6 0.00 0.00 0.00 56 1015.9
20260502090541 44 125 0.9 3.5 0.00 0.00 0.00 56 1016.0
20260502071022 53 168 0.0 0.9 0.00 0.00 0.00 39 1016.2
20260502070525 53 360 0.0 0.9 0.00 0.00 0.00 38 1016.2
20260502070024 53 168 0.0 0.9 0.00 0.00 0.00 37 1016.3
20260502065519 53 161 0.0 0.9 0.00 0.00 0.00 38 1016.3
20260502065018 52 161 0.0 0.9 0.00 0.00 0.00 39 1016.2
20260502064518 52 135 0.0 0.9 0.00 0.00 0.00 41 1016.2
20260502064016 50 259 0.0 0.9 0.00 0.00 0.00 43 1016.3
20260502063514 49 261 0.0 0.9 0.00 0.00 0.00 45 1016.3
20260502063014 48 261 0.0 1.7 0.00 0.00 0.00 47 1016.3
20260502062513 48 261 0.0 1.7 0.00 0.00 0.00 48 1016.2
20260502062011 48 261 0.0 0.0 0.00 0.00 0.00 48 1016.2
20260502061510 49 263 0.0 0.0 0.00 0.00 0.00 47 1016.1
20260502061009 49 263 0.0 0.0 0.00 0.00 0.00 47 1016.1
20260502060508 49 263 0.0 0.0 0.00 0.00 0.00 46 1016.1
20260502060009 49 263 0.0 0.0 0.00 0.00 0.00 47 1016.1
20260502055506 48 263 0.0 0.0 0.00 0.00 0.00 47 1016.1
20260502055010 48 263 0.0 0.0 0.00 0.00 0.00 47 1016.0
20260502054512 48 263 0.0 0.0 0.00 0.00 0.00 46 1016.0
20260502054006 49 263 0.0 0.0 0.00 0.00 0.00 47 1016.1
20260502053505 49 263 0.0 0.0 0.00 0.00 0.00 46 1016.0
20260502053005 49 263 0.0 0.0 0.00 0.00 0.00 45 1015.9
20260502052505 50 265 0.0 1.7 0.00 0.00 0.00 44 1016.0
20260502052005 50 265 0.9 1.7 0.00 0.00 0.00 43 1016.1
20260502051510 51 265 0.0 0.0 0.00 0.00 0.00 41 1016.0
20260502051006 53 265 0.0 0.0 0.00 0.00 0.00 38 1016.0
20260502050505 54 264 0.0 0.9 0.00 0.00 0.00 36 1015.8
20260502050004 54 264 0.0 0.9 0.00 0.00 0.00 38 1015.9
20260502045504 54 264 0.0 0.0 0.00 0.00 0.00 37 1016.0
20260502045004 55 264 0.0 0.0 0.00 0.00 0.00 36 1016.0
20260502044504 55 264 0.0 0.0 0.00 0.00 0.00 36 1015.9
20260502044004 55 264 0.0 0.0 0.00 0.00 0.00 36 1016.0
20260502043503 54 264 0.0 0.0 0.00 0.00 0.00 38 1016.0
20260502043003 52 264 0.0 0.0 0.00 0.00 0.00 41 1016.0
20260502042503 52 264 0.0 0.0 0.00 0.00 0.00 40 1015.8
20260502042003 52 264 0.0 0.9 0.00 0.00 0.00 40 1015.9
20260502041503 52 264 0.0 1.7 0.00 0.00 0.00 40 1015.8
20260502041002 53 264 0.0 1.7 0.00 0.00 0.00 38 1015.7
20260502040502 54 264 0.0 0.9 0.00 0.00 0.00 36 1015.7
20260502040003 54 263 0.0 0.9 0.00 0.00 0.00 36 1015.7
20260502035502 55 263 0.0 1.7 0.00 0.00 0.00 35 1015.7
20260502035002 56 263 0.0 1.7 0.00 0.00 0.00 33 1015.6
20260502034503 57 265 0.0 0.0 0.00 0.00 0.00 33 1015.6
20260502034002 57 265 0.0 0.0 0.00 0.00 0.00 33 1015.5
20260502033504 57 265 0.0 0.0 0.00 0.00 0.00 34 1015.4
20260502033002 57 265 0.0 0.0 0.00 0.00 0.00 34 1015.4
20260502032501 56 265 0.0 0.9 0.00 0.00 0.00 35 1015.3
20260502032001 56 265 0.0 0.9 0.00 0.00 0.00 34 1015.2
20260502031501 57 265 0.0 0.9 0.00 0.00 0.00 33 1015.3
20260502031001 57 265 0.0 0.9 0.00 0.00 0.00 33 1015.1
20260502030501 57 265 0.0 1.7 0.00 0.00 0.00 31 1015.0
20260502030101 57 265 0.0 3.5 0.00 0.00 0.00 29 1014.9
20260502025600 58 265 1.7 3.5 0.00 0.00 0.00 28 1015.0
20260502025102 58 294 0.9 4.3 0.00 0.00 0.00 27 1014.8
20260502024600 58 298 2.6 4.3 0.00 0.00 0.00 26 1014.8
20260502024100 58 270 0.9 5.2 0.00 0.00 0.00 25 1014.8
20260502023559 59 276 1.7 6.1 0.00 0.00 0.00 25 1014.8
20260502023101 59 275 3.5 7.8 0.00 0.00 0.00 25 1014.6
20260502022558 60 276 5.2 7.8 0.00 0.00 0.00 25 1014.7
20260502022101 60 236 5.2 7.8 0.00 0.00 0.00 25 1014.6
20260502021600 60 269 5.2 7.8 0.00 0.00 0.00 26 1014.5
20260502021101 60 280 4.3 7.8 0.00 0.00 0.00 25 1014.6
20260502020559 61 264 4.3 10.4 0.00 0.00 0.00 24 1014.5
20260502020109 61 240 7.0 10.4 0.00 0.00 0.00 23 1014.5
20260502015601 61 312 3.5 9.6 0.00 0.00 0.00 23 1014.6
20260502015102 61 269 6.1 9.6 0.00 0.00 0.00 22 1014.5
20260502014557 62 269 6.1 11.3 0.00 0.00 0.00 22 1014.4
20260502014158 62 254 4.3 12.2 0.00 0.00 0.00 23 1014.5
20260502013558 62 271 7.0 12.2 0.00 0.00 0.00 24 1014.4
20260502013057 62 270 8.7 12.2 0.00 0.00 0.00 24 1014.4
20260502012556 62 315 5.2 10.4 0.00 0.00 0.00 23 1014.4
20260502012056 62 303 6.1 13.0 0.00 0.00 0.00 23 1014.4
20260502011557 62 262 6.1 13.0 0.00 0.00 0.00 23 1014.5
20260502011054 63 284 7.0 12.2 0.00 0.00 0.00 24 1014.4
20260502010559 63 313 5.2 12.2 0.00 0.00 0.00 25 1014.4
20260502010057 63 254 5.2 13.9 0.00 0.00 0.00 26 1014.4
20260502005557 63 256 6.1 13.9 0.00 0.00 0.00 26 1014.5
20260502005054 63 284 7.8 13.0 0.00 0.00 0.00 26 1014.4
20260502004556 63 279 7.0 12.2 0.00 0.00 0.00 25 1014.4
20260502004054 64 275 6.1 12.2 0.00 0.00 0.00 25 1014.3
20260502003556 64 276 7.0 12.2 0.00 0.00 0.00 26 1014.3
20260502003053 64 257 7.0 12.2 0.00 0.00 0.00 25 1014.3
20260502002552 64 316 6.1 10.4 0.00 0.00 0.00 26 1014.4
20260502002052 64 288 4.3 11.3 0.00 0.00 0.00 25 1014.5
20260502001552 64 317 6.1 11.3 0.00 0.00 0.00 27 1014.5
20260502001052 64 319 8.7 11.3 0.00 0.00 0.00 26 1014.5
20260502000551 65 270 7.0 11.3 0.00 0.00 0.00 25 1014.5
20260502000051 65 324 5.2 13.9 0.00 0.00 0.00 27 1014.5
20260501235554 65 290 9.6 13.9 0.00 0.00 0.00 27 1014.6
20260501235053 65 304 5.2 13.0 0.00 0.00 0.00 25 1014.5
20260501234556 65 300 5.2 12.2 0.00 0.00 0.00 25 1014.5
20260501234050 65 327 7.0 12.2 0.00 0.00 0.00 24 1014.6
20260501233550 66 298 6.1 11.3 0.00 0.00 0.00 25 1014.5
20260501233052 66 302 6.1 14.8 0.00 0.00 0.00 24 1014.6
20260501232549 65 252 4.3 14.8 0.00 0.00 0.00 26 1014.5
20260501232052 66 254 7.0 13.9 0.00 0.00 0.00 24 1014.6
20260501231557 66 279 7.0 13.9 0.00 0.00 0.00 24 1014.7
20260501231048 66 257 7.0 13.0 0.00 0.00 0.00 25 1014.6
20260501230548 66 284 7.8 12.2 0.00 0.00 0.00 24 1014.6
20260501230048 66 284 7.0 12.2 0.00 0.00 0.00 24 1014.6
20260501225548 65 329 8.7 13.9 0.00 0.00 0.00 25 1014.6
20260501225048 66 263 7.0 13.9 0.00 0.00 0.00 24 1014.8
20260501224547 66 306 7.8 12.2 0.00 0.00 0.00 24 1014.8
20260501224046 66 304 7.0 12.2 0.00 0.00 0.00 24 1014.8
20260501223545 66 290 7.8 13.9 0.00 0.00 0.00 25 1014.9
20260501223045 65 315 7.0 13.9 0.00 0.00 0.00 25 1015.0
20260501222545 66 324 9.6 13.9 0.00 0.00 0.00 26 1015.1
20260501222046 66 325 7.8 13.0 0.00 0.00 0.00 25 1015.1
20260501221545 65 317 5.2 14.8 0.00 0.00 0.00 24 1015.0
20260501221144 65 9 8.7 14.8 0.00 0.00 0.00 24 1015.1
20260501220544 66 311 6.1 13.0 0.00 0.00 0.00 25 1015.1
20260501220044 66 251 5.2 13.9 0.00 0.00 0.00 25 1015.2
20260501215544 66 307 8.7 14.8 0.00 0.00 0.00 24 1015.3
20260501215044 66 319 8.7 14.8 0.00 0.00 0.00 23 1015.3
20260501214556 66 308 8.7 13.9 0.00 0.00 0.00 24 1015.3
20260501214043 65 302 8.7 13.9 0.00 0.00 0.00 25 1015.4
20260501213541 66 316 8.7 15.6 0.00 0.00 0.00 24 1015.4
20260501213049 65 271 7.0 15.6 0.00 0.00 0.00 24 1015.5
20260501212541 65 309 7.0 13.9 0.00 0.00 0.00 25 1015.5
20260501212042 65 330 6.1 14.8 0.00 0.00 0.00 26 1015.6
20260501211541 65 304 8.7 14.8 0.00 0.00 0.00 24 1015.6
20260501211041 64 251 7.8 13.9 0.00 0.00 0.00 25 1015.6
20260501210540 65 319 7.8 14.8 0.00 0.00 0.00 26 1015.7
20260501210040 65 274 7.0 14.8 0.00 0.00 0.00 23 1015.7
20260501205540 65 286 8.7 13.9 0.00 0.00 0.00 24 1015.8
20260501205040 65 255 7.0 13.9 0.00 0.00 0.00 26 1016.0
20260501204540 65 306 7.0 17.4 0.00 0.00 0.00 27 1016.0
20260501204040 65 300 13.0 17.4 0.00 0.00 0.00 26 1016.0
20260501203539 65 309 7.8 15.6 0.00 0.00 0.00 27 1016.1
20260501203038 65 297 9.6 15.6 0.00 0.00 0.00 27 1016.0
20260501202538 66 255 8.7 13.0 0.00 0.00 0.00 25 1016.0
20260501202038 65 306 7.8 13.9 0.00 0.00 0.00 24 1016.1
20260501201545 65 306 4.3 15.6 0.00 0.00 0.00 28 1016.0
20260501201038 65 324 7.0 15.6 0.00 0.00 0.00 27 1016.1
20260501200537 65 253 5.2 9.6 0.00 0.00 0.00 25 1016.0
20260501200037 65 304 3.5 9.6 0.00 0.00 0.00 25 1016.1
20260501195537 64 311 2.6 14.8 0.00 0.00 0.00 25 1016.2
20260501195037 63 276 7.8 14.8 0.00 0.00 0.00 27 1016.2
20260501194541 63 251 4.3 13.0 0.00 0.00 0.00 25 1016.1
20260501194036 64 265 5.2 12.2 0.00 0.00 0.00 26 1016.2
20260501193537 65 336 7.8 12.2 0.00 0.00 0.00 27 1016.3
20260501193035 64 334 6.1 11.3 0.00 0.00 0.00 26 1016.2
20260501192534 64 317 6.1 12.2 0.00 0.00 0.00 26 1016.3
20260501192034 63 325 6.1 12.2 0.00 0.00 0.00 29 1016.4
20260501191534 64 265 5.2 14.8 0.00 0.00 0.00 26 1016.3
20260501191034 64 304 8.7 14.8 0.00 0.00 0.00 27 1016.4
20260501190533 64 287 5.2 12.2 0.00 0.00 0.00 27 1016.4
20260501190033 64 340 5.2 11.3 0.00 0.00 0.00 28 1016.6
20260501185633 64 300 5.2 9.6 0.00 0.00 0.00 28 1016.6
20260501185031 64 332 6.1 13.0 0.00 0.00 0.00 28 1016.6
20260501184530 64 322 7.0 13.0 0.00 0.00 0.00 28 1016.6
20260501184030 63 355 4.3 10.4 0.00 0.00 0.00 26 1016.7
20260501183529 63 306 3.5 13.0 0.00 0.00 0.00 25 1016.8
20260501183028 63 309 2.6 13.0 0.00 0.00 0.00 28 1016.8
20260501182526 63 280 4.3 12.2 0.00 0.00 0.00 25 1016.7
20260501182026 64 313 6.1 10.4 0.00 0.00 0.00 27 1016.8
20260501181529 62 292 1.7 7.8 0.00 0.00 0.00 26 1016.9
20260501181025 62 306 1.7 9.6 0.00 0.00 0.00 25 1016.9
20260501180524 63 334 3.5 9.6 0.00 0.00 0.00 26 1016.9
20260501180033 64 349 6.1 9.6 0.00 0.00 0.00 26 1016.9
20260501175522 63 127 3.5 9.6 0.00 0.00 0.00 28 1016.9
20260501175021 62 132 0.9 8.7 0.00 0.00 0.00 26 1016.9
20260501174520 63 315 3.5 8.7 0.00 0.00 0.00 25 1017.0
20260501174019 62 319 2.6 7.8 0.00 0.00 0.00 26 1017.1
20260501173517 63 36 4.3 11.3 0.00 0.00 0.00 26 1017.1
20260501173016 63 23 6.1 11.3 0.00 0.00 0.00 27 1017.1
20260501172514 62 282 2.6 9.6 0.00 0.00 0.00 30 1017.1
20260501172014 62 25 3.5 11.3 0.00 0.00 0.00 28 1017.2
20260501171524 62 24 6.1 11.3 0.00 0.00 0.00 28 1017.2
20260501171011 62 40 4.3 10.4 0.00 0.00 0.00 29 1017.2
20260501170510 62 9 4.3 10.4 0.00 0.00 0.00 29 1017.3
20260501170009 61 319 7.0 9.6 0.00 0.00 0.00 28 1017.3